TimeCDT,TemperatureF,Dew PointF,Humidity,Sea Level PressureIn,VisibilityMPH,Wind Direction,Wind SpeedMPH,Gust SpeedMPH,PrecipitationIn,Events,Conditions,WindDirDegrees,DateUTC
12:54 AM,75.0,71.1,87,29.70,7.0,SE,5.8,-,N/A,,Clear,140,2013-06-25 05:54:00
1:54 AM,77.0,69.1,76,29.75,9.0,SW,13.8,-,0.00,Rain,Light Rain,220,2013-06-25 06:54:00
2:03 AM,77.0,69.8,78,29.80,8.0,WSW,9.2,-,N/A,Thunderstorm,Thunderstorm,240,2013-06-25 07:03:00
2:27 AM,75.2,69.8,83,29.77,8.0,South,8.1,-,0.00,,Clear,190,2013-06-25 07:27:00
2:54 AM,73.9,70.0,87,29.72,7.0,South,6.9,-,0.00,,Clear,170,2013-06-25 07:54:00
3:54 AM,73.0,69.1,87,29.69,8.0,SSE,6.9,-,N/A,,Clear,160,2013-06-25 08:54:00
4:54 AM,73.0,69.1,87,29.70,7.0,South,9.2,-,N/A,,Clear,190,2013-06-25 09:54:00
5:54 AM,73.0,69.1,87,29.70,7.0,West,9.2,-,N/A,,Mostly Cloudy,280,2013-06-25 10:54:00
6:54 AM,73.9,70.0,87,29.71,6.0,WSW,8.1,-,N/A,Thunderstorm,Overcast,250,2013-06-25 11:54:00
7:05 AM,75.2,69.8,83,29.79,1.8,SSW,28.8,39.1,0.07,Rain-Thunderstorm,Light Thunderstorms and Rain,210,2013-06-25 12:05:00
7:16 AM,71.6,66.2,83,29.78,2.5,SW,21.9,31.1,0.15,Rain-Thunderstorm,Light Thunderstorms and Rain,220,2013-06-25 12:16:00
7:23 AM,71.6,66.2,83,29.78,10.0,WSW,20.7,29.9,0.15,Rain-Thunderstorm,Light Thunderstorms and Rain,240,2013-06-25 12:23:00
7:49 AM,71.6,68.0,88,29.78,1.8,West,8.1,-,0.19,Rain-Thunderstorm,Rain,270,2013-06-25 12:49:00
7:54 AM,71.1,68.0,90,29.73,1.8,WNW,4.6,-,0.19,Rain-Thunderstorm,Light Thunderstorms and Rain,300,2013-06-25 12:54:00
8:22 AM,69.8,68.0,94,29.77,3.0,SSE,12.7,-,0.18,Rain-Thunderstorm,Light Rain,150,2013-06-25 13:22:00
8:25 AM,71.6,68.0,88,29.78,5.0,South,9.2,-,0.18,Rain-Thunderstorm,Light Thunderstorms and Rain,170,2013-06-25 13:25:00
8:46 AM,71.6,68.0,88,29.77,10.0,Calm,Calm,-,0.18,,Partly Cloudy,0,2013-06-25 13:46:00
8:54 AM,71.1,68.0,90,29.74,10.0,ESE,3.5,-,0.18,,Clear,120,2013-06-25 13:54:00
9:54 AM,79.0,70.0,74,29.74,10.0,SE,8.1,-,N/A,,Clear,140,2013-06-25 14:54:00
10:54 AM,82.9,70.0,65,29.73,10.0,SE,9.2,-,N/A,,Partly Cloudy,140,2013-06-25 15:54:00
11:54 AM,84.0,68.0,58,29.69,10.0,SSE,12.7,-,N/A,,Clear,150,2013-06-25 16:54:00
12:54 PM,84.0,68.0,58,29.68,10.0,SSE,18.4,23.0,N/A,,Clear,150,2013-06-25 17:54:00
1:54 PM,87.1,71.1,59,29.66,10.0,South,11.5,-,N/A,,Clear,170,2013-06-25 18:54:00
2:54 PM,88.0,73.0,61,29.66,10.0,South,16.1,23.0,N/A,,Scattered Clouds,170,2013-06-25 19:54:00
3:54 PM,86.0,73.0,65,29.65,8.0,South,11.5,-,N/A,,Mostly Cloudy,180,2013-06-25 20:54:00
4:54 PM,84.9,73.9,69,29.65,8.0,South,9.2,-,N/A,,Overcast,180,2013-06-25 21:54:00
5:54 PM,86.0,75.0,70,29.64,7.0,SSE,8.1,-,N/A,,Partly Cloudy,160,2013-06-25 22:54:00
6:54 PM,84.9,73.9,69,29.63,7.0,SE,6.9,-,N/A,,Partly Cloudy,140,2013-06-25 23:54:00
7:54 PM,84.0,75.0,74,29.64,7.0,ESE,6.9,-,N/A,,Clear,120,2013-06-26 00:54:00
8:54 PM,81.0,75.0,82,29.64,6.0,ESE,3.5,-,N/A,,Haze,110,2013-06-26 01:54:00
9:54 PM,79.0,75.0,88,29.65,7.0,East,3.5,-,N/A,,Mostly Cloudy,80,2013-06-26 02:54:00
10:54 PM,78.1,75.0,90,29.65,6.0,East,3.5,-,N/A,,Clear,90,2013-06-26 03:54:00
11:54 PM,75.9,73.9,94,29.64,5.0,Calm,Calm,-,N/A,,Scattered Clouds,0,2013-06-26 04:54:00